Previsão horária em Barnowiec

Hoje, 29 Outubro, Quinta-feira

Tempo Temperatura Precipitação Vento Pressão Humidade
00:00 +8°C° 0 mm 0 m/s 708 mmHg 93%
01:00 +9°C° 0 mm 1 m/s 708 mmHg 94%
02:00 +9°C° 0 mm 1 m/s 708 mmHg 93%
03:00 +9°C° 0 mm 1 m/s 707 mmHg 93%
04:00 +9°C° 0 mm 1 m/s 707 mmHg 92%
05:00 +8°C° 0 mm 1 m/s 707 mmHg 92%
06:00 +8°C° 0 mm 1 m/s 707 mmHg 92%
07:00 +8°C° 0 mm 1 m/s 708 mmHg 92%
08:00 +9°C° 0 mm 1 m/s 708 mmHg 86%
09:00 +11°C° 0 mm 1 m/s 708 mmHg 80%
10:00 +12°C° 0 mm 1 m/s 708 mmHg 74%
11:00 +13°C° 0 mm 1 m/s 708 mmHg 71%
12:00 +13°C° 0 mm 2 m/s 708 mmHg 67%
13:00 +14°C° 0 mm 2 m/s 708 mmHg 63%
14:00 +13°C° 0.2 mm 2 m/s 708 mmHg 69%
15:00 +12°C° 0.2 mm 2 m/s 707 mmHg 75%
16:00 +11°C° 0.2 mm 1 m/s 707 mmHg 80%
17:00 +10°C° 0.2 mm 1 m/s 707 mmHg 82%
18:00 +9°C° 0.2 mm 2 m/s 708 mmHg 84%
19:00 +8°C° 0.2 mm 2 m/s 708 mmHg 86%
20:00 +8°C° 0.9 mm 2 m/s 708 mmHg 87%
21:00 +7°C° 0.9 mm 3 m/s 708 mmHg 88%
22:00 +7°C° 0.9 mm 3 m/s 708 mmHg 90%
23:00 +5°C° 0.2 mm 3 m/s 709 mmHg 89%

Amanhã, 30 Outubro, Sexta-feira

Tempo Temperatura Precipitação Vento Pressão Humidade
00:00 +4°C° 0.2 mm 3 m/s 709 mmHg 89%
01:00 +4°C° 0.2 mm 3 m/s 709 mmHg 89%
02:00 +4°C° 0 mm 2 m/s 709 mmHg 90%
03:00 +4°C° 0 mm 2 m/s 709 mmHg 91%
04:00 +4°C° 0 mm 1 m/s 709 mmHg 92%
05:00 +4°C° 0 mm 1 m/s 710 mmHg 91%
06:00 +4°C° 0 mm 1 m/s 710 mmHg 90%
07:00 +4°C° 0 mm 1 m/s 710 mmHg 90%
08:00 +6°C° 0 mm 1 m/s 710 mmHg 83%
09:00 +7°C° 0 mm 1 m/s 711 mmHg 77%
10:00 +9°C° 0 mm 1 m/s 711 mmHg 71%
11:00 +9°C° 0 mm 1 m/s 710 mmHg 70%
12:00 +9°C° 0 mm 2 m/s 710 mmHg 69%
13:00 +9°C° 0 mm 2 m/s 710 mmHg 67%
14:00 +8°C° 0.7 mm 2 m/s 709 mmHg 75%
15:00 +7°C° 0.7 mm 2 m/s 709 mmHg 83%
16:00 +7°C° 0.7 mm 2 m/s 708 mmHg 90%
17:00 +7°C° 0.9 mm 2 m/s 708 mmHg 92%
18:00 +7°C° 0.9 mm 2 m/s 708 mmHg 93%
19:00 +7°C° 0.9 mm 2 m/s 708 mmHg 94%
20:00 +7°C° 0.6 mm 2 m/s 708 mmHg 94%
21:00 +7°C° 0.6 mm 2 m/s 708 mmHg 95%
22:00 +8°C° 0.6 mm 2 m/s 708 mmHg 95%
23:00 +8°C° 0.7 mm 2 m/s 708 mmHg 95%

Depois de amanhã, 31 Outubro, Sábado

Tempo Temperatura Precipitação Vento Pressão Humidade
00:00 +8°C° 0.7 mm 2 m/s 708 mmHg 96%
01:00 +9°C° 0.7 mm 2 m/s 708 mmHg 96%
02:00 +9°C° 1.1 mm 2 m/s 708 mmHg 96%
03:00 +9°C° 1.1 mm 3 m/s 708 mmHg 97%
04:00 +9°C° 1.1 mm 3 m/s 709 mmHg 97%
05:00 +8°C° 1 mm 3 m/s 709 mmHg 97%
06:00 +8°C° 1 mm 2 m/s 709 mmHg 96%
07:00 +7°C° 1 mm 2 m/s 710 mmHg 96%
08:00 +7°C° 0.1 mm 2 m/s 710 mmHg 94%
09:00 +7°C° 0.1 mm 2 m/s 711 mmHg 91%
10:00 +9°C° 0.1 mm 1 m/s 711 mmHg 89%
11:00 +8°C° 0.1 mm 2 m/s 711 mmHg 85%
12:00 +9°C° 0.1 mm 2 m/s 712 mmHg 81%
13:00 +9°C° 0.1 mm 3 m/s 712 mmHg 78%
14:00 +8°C° 0 mm 2 m/s 712 mmHg 81%
15:00 +8°C° 0 mm 2 m/s 712 mmHg 85%
16:00 +8°C° 0 mm 1 m/s 712 mmHg 88%
17:00 +7°C° 0 mm 1 m/s 712 mmHg 90%
18:00 +6°C° 0 mm 1 m/s 712 mmHg 92%
19:00 +5°C° 0 mm 1 m/s 712 mmHg 94%
20:00 +4°C° 0 mm 0 m/s 712 mmHg 94%
21:00 +4°C° 0 mm 0 m/s 712 mmHg 95%
22:00 +4°C° 0 mm 0 m/s 712 mmHg 95%
23:00 +3°C° 0 mm 0 m/s 712 mmHg 95%

1 Novembro, Domingo

Tempo Temperatura Precipitação Vento Pressão Humidade
00:00 +3°C° 0 mm 0 m/s 712 mmHg 95%
01:00 +3°C° 0 mm 0 m/s 712 mmHg 95%
02:00 +3°C° 0 mm 0 m/s 712 mmHg 94%
03:00 +4°C° 0 mm 1 m/s 712 mmHg 94%
04:00 +3°C° 0 mm 1 m/s 712 mmHg 93%
05:00 +3°C° 0 mm 1 m/s 712 mmHg 92%
06:00 +3°C° 0 mm 1 m/s 712 mmHg 91%
07:00 +4°C° 0 mm 1 m/s 712 mmHg 90%
08:00 +5°C° 0 mm 1 m/s 712 mmHg 84%
09:00 +7°C° 0 mm 1 m/s 712 mmHg 77%
10:00 +9°C° 0 mm 1 m/s 712 mmHg 71%
11:00 +10°C° 0 mm 1 m/s 712 mmHg 68%
12:00 +11°C° 0 mm 1 m/s 712 mmHg 64%
13:00 +12°C° 0 mm 1 m/s 712 mmHg 61%
14:00 +11°C° 0 mm 1 m/s 711 mmHg 67%
15:00 +10°C° 0 mm 1 m/s 711 mmHg 74%
16:00 +7°C° 0 mm 2 m/s 710 mmHg 80%
17:00 +7°C° 0 mm 2 m/s 710 mmHg 84%
18:00 +6°C° 0 mm 2 m/s 710 mmHg 87%
19:00 +6°C° 0 mm 2 m/s 710 mmHg 90%
20:00 +5°C° 0 mm 2 m/s 710 mmHg 91%
21:00 +5°C° 0 mm 2 m/s 710 mmHg 91%
22:00 +5°C° 0 mm 2 m/s 710 mmHg 92%
23:00 +6°C° 0.1 mm 2 m/s 710 mmHg 92%

2 Novembro, Segunda-feira

Tempo Temperatura Precipitação Vento Pressão Humidade
00:00 +6°C° 0.1 mm 2 m/s 710 mmHg 92%
01:00 +6°C° 0.1 mm 2 m/s 710 mmHg 92%
02:00 +6°C° 0.8 mm 2 m/s 709 mmHg 93%
03:00 +6°C° 0.8 mm 2 m/s 709 mmHg 94%
04:00 +7°C° 0.8 mm 2 m/s 709 mmHg 94%
05:00 +7°C° 0.1 mm 2 m/s 709 mmHg 94%
06:00 +7°C° 0.1 mm 2 m/s 709 mmHg 94%
07:00 +7°C° 0.1 mm 3 m/s 709 mmHg 93%
08:00 +8°C° 0 mm 3 m/s 710 mmHg 92%
09:00 +8°C° 0 mm 3 m/s 710 mmHg 90%
10:00 +9°C° 0 mm 3 m/s 710 mmHg 88%
11:00 +10°C° 0.1 mm 3 m/s 710 mmHg 88%
12:00 +10°C° 0.1 mm 3 m/s 710 mmHg 88%
13:00 +11°C° 0.1 mm 3 m/s 710 mmHg 88%
14:00 +10°C° 0.2 mm 3 m/s 710 mmHg 90%
15:00 +10°C° 0.2 mm 3 m/s 710 mmHg 91%
16:00 +9°C° 0.2 mm 3 m/s 710 mmHg 93%
17:00 +9°C° 0 mm 3 m/s 710 mmHg 94%
18:00 +9°C° 0 mm 2 m/s 710 mmHg 94%
19:00 +8°C° 0 mm 2 m/s 710 mmHg 95%
20:00 +8°C° 0 mm 2 m/s 710 mmHg 95%
21:00 +8°C° 0 mm 2 m/s 710 mmHg 95%
22:00 +8°C° 0 mm 2 m/s 711 mmHg 95%
23:00 +8°C° 0 mm 2 m/s 711 mmHg 95%

3 Novembro, Terça-feira

Tempo Temperatura Precipitação Vento Pressão Humidade
00:00 +8°C° 0 mm 2 m/s 711 mmHg 95%
01:00 +9°C° 0 mm 2 m/s 711 mmHg 95%
02:00 +9°C° 0 mm 2 m/s 711 mmHg 95%
03:00 +9°C° 0 mm 2 m/s 711 mmHg 94%
04:00 +9°C° 0 mm 2 m/s 711 mmHg 94%
05:00 +9°C° 0 mm 2 m/s 711 mmHg 94%
06:00 +9°C° 0 mm 2 m/s 711 mmHg 94%
07:00 +9°C° 0 mm 2 m/s 712 mmHg 94%
08:00 +10°C° 0 mm 2 m/s 712 mmHg 90%
09:00 +13°C° 0 mm 1 m/s 712 mmHg 86%
10:00 +14°C° 0 mm 1 m/s 713 mmHg 82%
11:00 +15°C° 0 mm 1 m/s 713 mmHg 80%
12:00 +15°C° 0 mm 1 m/s 713 mmHg 78%
13:00 +16°C° 0 mm 1 m/s 713 mmHg 76%
14:00 +15°C° 0 mm 1 m/s 713 mmHg 81%
15:00 +14°C° 0 mm 1 m/s 713 mmHg 86%
16:00 +12°C° 0 mm 1 m/s 712 mmHg 92%
17:00 +12°C° 0 mm 1 m/s 713 mmHg 92%
18:00 +11°C° 0 mm 1 m/s 713 mmHg 93%
19:00 +11°C° 0 mm 1 m/s 713 mmHg 93%
20:00 +11°C° 0 mm 1 m/s 713 mmHg 92%
21:00 +11°C° 0 mm 1 m/s 713 mmHg 91%
22:00 +11°C° 0 mm 1 m/s 713 mmHg 90%
23:00 +11°C° 0 mm 1 m/s 713 mmHg 90%
Mostrar mais